SCP
3 3 3 2 2 2 1 1 1 1 0 0 0 0 0 0 0 0 0 0 0 0 1 1 1 1 0 0 0 0 0 0 0 0 0 0 0 0 0 0 0 0 0
3 3 3 2 2 2 1 1 1 1 0 0 0 0 0 0 0 0 0 0 0 0 1 1 1 1 0 0 0 0 0 0 0 0 0 0 0 0 0 0 0 0 0
3 3 3 2 2 2 1 1 1 1 1 0 0 0 0 0 0 0 0 0 0 0 0 1 1 0 0 0 0 0 0 0 0 0 0 0 0 0 0 0 0 0 0
3 3 3 2 2 2 1 1 1 1 1 0 0 0 0 0 0 0 0 0 0 0 0 0 0 0 0 0 0 0 0 0 0 0 0 0 0 0 0 0 0 0 0
3 3 2 2 2 2 1 1 0 0 1 0 0 0 0 0 0 0 0 0 0 0 0 0 0 0 0 0 0 0 0 0 0 0 0 0 0 0 0 0 0 0 0
3 3 2 2 1 1 1 1 0 0 0 0 0 0 0 0 0 0 0 0 0 0 0 0 0 0 0 0 0 0 0 0 0 0 0 0 0 0 0 0 0 0 0
3 3 2 2 1 1 1 1 0 0 0 0 0 0 0 0 0 0 0 0 0 0 0 0 0 0 0 0 0 0 0 0 0 0 0 0 0 0 0 0 0 0 0
3 3 2 2 1 1 1 1 0 0 0 0 0 0 0 0 0 0 0 0 0 0 0 0 0 0 0 0 0 0 0 0 0 0 0 0 0 0 0 0 0 0 1
3 3 2 2 1 1 1 0 0 0 0 0 0 0 0 0 0 0 0 0 0 0 0 0 0 0 0 0 0 0 0 0 0 0 0 0 0 0 1 0 0 1 1
3 3 3 2 1 1 1 0 0 0 0 0 0 0 0 0 0 0 0 0 0 0 0 0 0 0 0 0 0 0 0 0 0 0 0 0 1 1 1 1 1 1 1
3 3 2 2 1 1 0 0 0 0 0 0 0 0 0 0 0 0 0 0 0 0 0 0 0 0 0 0 0 0 0 0 0 0 0 0 1 1 1 1 1 1 1
2 2 2 2 1 1 0 0 0 0 0 0 0 0 0 0 0 0 0 0 0 0 0 0 0 0 0 0 0 0 0 0 0 0 0 0 0 0 0 0 0 0 1
2 2 2 1 1 1 0 0 0 0 0 0 0 0 0 0 0 0 0 0 0 0 0 0 0 0 0 0 0 0 0 0 0 0 0 0 0 0 0 0 0 0 0
1 1 1 1 1 1 0 0 0 0 0 0 0 0 0 0 0 0 0 0 0 0 0 0 0 0 0 0 0 0 0 0 0 0 0 0 0 0 0 0 0 0 0
1 1 1 1 1 0 0 0 0 0 0 0 0 0 0 0 0 0 0 0 0 0 0 0 0 0 0 0 0 0 0 0 0 0 0 0 0 0 0 0 0 0 0
0 1 1 1 1 0 0 0 0 0 0 0 0 0 0 0 0 0 0 0 0 0 0 0 0 0 0 0 0 0 0 0 0 0 0 0 0 0 0 0 0 0 0
1 1 1 1 1 1 0 0 0 0 0 0 0 0 0 0 0 0 0 0 0 0 0 0 0 0 0 0 0 0 0 0 0 0 0 0 0 0 0 0 0 0 0
1 1 1 1 1 1 0 0 0 0 0 0 0 0 0 0 0 0 0 0 0 0 0 0 0 0 0 0 0 0 0 0 0 0 0 0 0 0 0 0 0 0 0
0 0 0 0 0 0 0 0 0 0 0 0 0 0 0 0 0 0 0 0 0 0 0 0 0 0 0 0 0 0 0 0 0 0 0 0 0 0 0 0 0 0 0
0 0 0 0 0 0 0 0 0 0 0 0 0 0 1 0 0 0 0 0 0 0 0 0 0 0 0 0 0 0 0 0 0 0 0 0 0 0 0 0 0 0 0
0 0 0 0 0 0 0 0 0 0 0 0 0 0 1 0 0 0 0 0 0 0 0 0 0 0 0 0 0 0 0 0 0 0 0 0 0 0 0 0 0 0 0
0 0 0 0 0 0 0 0 0 0 0 0 0 0 0 0 0 0 0 0 0 0 0 0 0 0 0 0 0 0 0 0 0 0 0 0 0 0 0 0 0 0 0
0 0 0 0 0 0 0 0 0 0 0 0 0 0 0 0 0 0 0 0 0 0 0 0 0 0 0 0 0 0 0 0 0 0 0 0 0 0 0 0 0 0 0
0 0 0 0 0 0 0 0 0 0 0 0 0 1 0 0 0 0 0 0 0 0 0 0 0 0 0 0 0 0 0 0 0 0 0 0 0 0 0 0 0 0 0
0 0 0 0 0 0 0 0 0 0 0 0 0 0 0 0 0 0 0 0 0 0 0 0 0 0 0 0 0 0 0 0 0 0 0 0 0 0 0 0 0 0 0
0 0 0 0 0 0 0 0 0 0 0 0 0 0 0 0 0 0 0 0 0 0 0 0 0 0 0 0 0 0 0 0 0 0 0 0 0 0 0 0 0 0 0
Wind_Speed
5 4 3 3 3 3 3 3 4 5 5 5 5 5 5 5 4 3 3 7 7 8 9 9 8 8 9 9 9 8 8 8 8 7 7 7 8 8 8 8 7 7 7
4 5 4 4 3 3 3 3 4 4 4 4 5 5 5 4 4 4 3 4 6 7 8 8 8 8 8 8 8 7 7 7 6 6 6 7 7 7 7 7 7 6 6
5 5 5 4 3 3 4 4 4 4 4 4 4 4 4 4 4 4 3 3 3 5 6 7 7 6 6 6 7 6 6 5 5 5 5 5 5 6 6 6 6 5 5
5 5 5 4 4 4 4 4 4 4 4 4 3 3 3 3 4 4 3 3 2 2 3 6 6 5 5 5 6 5 5 4 4 4 4 4 4 4 4 4 5 4 4
5 5 5 4 5 4 4 4 4 4 5 4 4 3 3 3 3 3 3 3 3 2 2 3 4 4 4 4 4 4 4 3 3 3 3 3 3 3 3 4 4 4 4
5 4 4 5 5 5 4 4 5 4 4 4 5 4 2 2 2 2 2 2 2 2 2 2 2 2 3 3 3 3 3 3 3 2 2 3 3 2 3 3 3 3 3
6 5 4 5 5 5 5 6 5 5 4 4 4 3 2 2 2 1 1 2 2 2 2 2 1 1 1 2 2 2 2 2 2 2 2 2 2 2 2 2 2 2 2
6 5 6 6 6 5 6 6 5 4 3 3 4 4 2 1 1 1 1 2 1 1 1 1 1 1 1 1 1 1 0 1 1 1 1 1 1 1 1 1 1 0 1
6 6 6 6 6 6 6 6 6 6 5 2 3 4 4 3 1 0 0 1 1 1 1 1 1 1 1 0 0 1 1 2 2 2 1 1 1 1 1 1 1 1 1
6 6 6 6 7 6 6 6 5 4 6 4 2 1 2 4 4 1 1 0 1 1 1 1 1 1 1 0 0 1 1 1 2 2 2 1 1 1 1 1 1 2 2
4 5 5 6 7 6 7 7 5 5 5 5 3 2 2 2 2 3 2 1 1 1 2 2 2 1 1 1 1 1 2 2 2 3 3 3 2 2 2 2 2 3 3
2 4 5 6 7 6 7 7 6 7 5 5 3 3 3 3 3 3 3 3 2 2 1 2 2 2 2 1 2 2 2 3 3 3 4 3 3 3 3 4 4 4 4
2 3 4 5 6 6 6 6 6 6 6 6 4 3 3 3 3 3 3 2 2 1 1 1 2 2 2 1 2 2 2 2 3 3 4 3 3 3 4 4 5 5 4
3 3 4 4 6 7 7 6 5 5 5 5 5 4 3 3 3 3 3 3 2 1 1 2 1 2 2 2 3 3 2 2 2 2 3 3 3 3 4 4 5 5 5
2 3 4 4 5 6 7 7 5 6 5 5 5 5 3 3 3 2 3 4 4 3 3 3 2 2 2 2 3 2 2 3 2 3 3 3 3 3 4 4 5 5 4
2 3 4 4 5 5 6 6 5 5 6 5 4 5 4 3 3 2 3 2 3 3 3 3 3 2 2 2 3 2 2 3 3 3 3 3 4 4 4 4 4 4 4
3 3 4 4 5 5 5 6 6 6 6 5 4 5 5 4 4 3 3 3 2 3 3 2 1 1 2 2 1 1 1 2 2 4 4 4 4 4 4 4 4 4 4
3 3 4 5 5 5 5 6 6 6 7 7 6 6 6 4 5 4 4 4 3 3 3 3 2 2 2 3 2 2 1 1 2 3 4 5 4 4 4 4 4 4 4
2 2 3 4 4 5 5 5 6 6 6 6 6 6 6 6 6 4 4 4 3 3 2 3 2 2 1 1 1 1 1 1 2 3 4 4 4 4 4 4 4 4 4
2 2 3 3 4 5 5 5 5 5 5 5 5 6 6 7 7 6 5 5 3 3 3 3 2 1 1 1 1 1 1 1 2 2 2 3 3 4 4 4 4 4 4
2 2 2 2 3 4 4 5 5 5 5 5 4 4 5 6 7 6 5 5 5 4 3 2 2 2 2 2 3 2 2 1 2 1 1 2 1 1 2 4 4 4 4
1 2 2 3 2 2 3 5 4 5 5 5 5 4 4 5 5 5 5 5 6 5 5 4 3 4 4 3 2 2 1 1 2 1 1 2 1 2 2 2 4 5 5
2 2 2 3 3 3 4 4 5 4 5 5 5 5 3 3 4 4 4 4 5 6 6 5 5 5 4 4 4 3 3 2 3 1 1 2 1 2 2 3 5 5 4
1 2 2 2 3 3 3 4 4 4 4 4 4 5 5 4 4 4 4 4 3 3 4 4 4 4 4 4 5 4 3 1 1 1 1 2 2 2 3 3 4 4 4
1 2 2 2 3 3 3 4 4 3 4 4 4 4 5 5 6 6 4 4 3 2 1 2 2 2 2 3 3 3 2 2 2 2 1 2 2 2 2 2 3 4 5
2 2 2 2 3 3 4 4 4 3 3 3 3 3 5 5 6 6 5 5 5 3 2 1 1 0 1 2 3 3 4 3 2 2 2 2 1 1 2 2 2 2 3
Wind_Direction
149 146 143 138 133 129 128 128 121 116 112 109 108 107 104 102 101 95 95 98 101 104 106 107 111 112 109 105 102 100 97 91 90 89 87 83 79 77 75 74 74 73 71
156 153 149 147 145 143 138 134 133 127 122 117 109 106 105 104 99 97 88 92 95 99 103 104 105 109 109 108 105 100 99 96 93 90 90 88 84 78 74 70 69 69 67
160 159 154 153 155 144 134 123 121 117 117 113 106 104 103 103 105 102 95 85 83 86 96 102 103 104 111 111 108 105 100 96 95 94 94 93 89 81 76 69 65 63 63
157 159 156 158 153 144 139 135 133 124 122 120 113 104 99 102 104 105 100 94 86 78 82 89 97 99 106 119 116 114 110 102 97 96 97 99 98 91 78 75 67 57 57
154 161 161 157 151 146 143 146 141 137 136 130 121 105 97 101 107 107 106 104 101 93 82 76 78 84 86 112 121 117 112 112 112 108 101 106 107 102 91 81 70 65 63
152 156 158 154 150 148 149 149 145 133 137 137 120 99 84 90 98 108 116 110 108 104 94 85 74 66 72 84 105 118 120 118 117 117 111 114 115 110 99 89 79 70 67
156 155 161 156 155 157 160 152 143 136 128 133 114 94 52 58 79 94 110 115 110 109 103 96 89 71 50 64 79 112 133 136 137 133 118 116 116 111 105 107 97 74 60
165 162 164 163 162 155 153 154 146 142 145 151 138 131 115 37 9 63 105 124 129 113 110 107 106 95 61 36 23 50 11 222 202 188 160 148 152 149 150 181 186 58 26
175 167 169 166 166 163 165 166 161 150 160 175 156 147 152 185 185 313 146 129 148 144 154 148 131 129 119 73 1 343 343 304 264 257 230 216 219 224 244 241 244 267 285
181 173 170 172 168 167 166 171 169 155 158 170 171 140 144 144 149 164 273 225 189 194 198 190 176 184 170 183 273 265 286 292 275 266 246 250 257 273 274 278 279 291 289
180 172 174 176 173 171 170 170 167 161 165 170 168 151 124 106 127 147 188 221 241 233 216 207 195 204 212 219 236 263 251 244 254 263 255 260 267 282 302 310 309 299 296
183 182 182 181 178 175 174 175 176 172 173 169 167 159 155 157 167 156 169 188 215 237 225 212 205 211 215 220 245 263 250 242 244 256 255 261 275 285 290 293 296 308 305
196 197 186 189 183 180 175 172 175 178 175 173 175 177 175 172 159 152 151 167 192 238 239 233 220 214 215 211 232 251 247 245 245 253 261 269 284 293 292 291 295 299 306
203 200 186 193 189 181 178 175 176 180 176 181 183 179 178 182 170 162 159 157 164 213 238 243 242 219 217 209 227 222 236 243 249 259 270 279 292 302 300 292 291 293 296
201 196 194 188 191 186 181 175 179 181 181 187 188 186 187 183 179 177 164 165 166 191 221 225 227 230 216 206 218 207 217 241 249 260 270 281 284 289 293 292 289 288 288
199 199 196 195 188 186 181 179 181 182 182 190 188 186 195 188 182 181 180 183 178 178 207 213 217 222 213 219 221 206 220 238 247 250 256 268 276 280 287 292 289 279 278
197 198 196 195 188 184 182 182 184 181 187 192 192 193 202 195 190 191 186 188 191 173 200 237 226 211 195 205 223 213 228 228 239 252 255 265 270 272 278 286 286 280 282
202 196 195 192 186 184 185 185 186 186 191 195 198 199 205 197 198 196 193 199 201 191 185 215 225 210 215 206 200 213 253 251 239 256 260 266 267 269 275 281 282 285 288
204 192 188 186 183 184 187 192 191 191 197 200 201 203 206 197 203 204 201 204 203 198 189 195 217 213 213 198 185 240 268 273 269 263 261 264 267 268 271 277 279 278 283
192 187 179 185 187 187 192 195 191 190 197 203 205 206 204 202 204 203 204 202 193 191 186 192 212 211 207 189 178 215 263 268 283 291 273 274 275 275 271 277 276 274 275
198 182 167 167 178 186 195 191 191 194 194 201 203 208 207 208 211 205 203 196 188 190 191 201 210 212 208 197 214 208 238 253 289 275 273 275 276 272 272 274 273 269 272
193 176 174 177 185 204 198 198 197 195 197 202 204 207 210 205 205 204 203 197 192 196 201 204 217 219 224 219 211 204 204 228 261 241 230 275 247 257 263 256 269 268 269
190 183 185 178 192 206 204 203 207 203 200 206 205 201 206 208 203 198 202 203 206 213 209 205 211 219 214 210 195 202 210 223 243 236 216 266 266 268 269 270 270 269 275
202 198 192 190 197 209 202 203 209 203 204 206 204 201 197 200 201 198 193 196 206 214 217 212 210 217 213 201 198 202 200 197 320 292 211 253 268 271 284 276 271 271 278
212 215 202 195 200 216 214 212 210 199 201 203 204 202 197 198 199 192 186 186 196 218 198 182 209 212 197 193 183 157 164 188 255 258 221 222 259 288 285 275 275 277 284
204 208 212 205 209 214 224 218 211 200 197 201 196 197 206 208 200 195 195 191 200 209 176 137 97 67 158 169 184 197 193 204 230 237 213 207 243 290 291 282 279 280 284